GW4500 Weather Reports


time (UTC)temp
C
wind
direction
speed
KPH
gust
KPH
rain 1hr
cm
rain 24hr
cm
rain mn
cm
humidity
%
barometer
mb
20260503184657 12 286 11.3 14.5 0.00 0.00 0.00 44 1019.2
20260503184154 11 227 9.7 11.3 0.00 0.00 0.00 41 1019.3
20260503183649 12 229 9.7 12.9 0.00 0.00 0.00 43 1019.3
20260503183147 12 238 9.7 12.9 0.00 0.00 0.00 42 1019.5
20260503182645 11 232 12.9 14.5 0.00 0.00 0.00 41 1019.6
20260503182144 11 35 8.0 11.3 0.00 0.00 0.00 45 1019.3
20260503181640 11 218 1.6 1.6 0.00 0.00 0.00 41 1019.6
20260503181137 11 211 4.8 4.8 0.00 0.00 0.00 46 1019.4
20260503180634 12 253 14.5 17.7 0.00 0.00 0.00 40 1019.6
20260503180132 11 177 1.6 3.2 0.00 0.00 0.00 45 1019.6
20260503175629 10 315 9.7 14.5 0.00 0.00 0.00 45 1019.6
20260503175125 11 239 16.1 20.9 0.00 0.00 0.00 44 1019.9
20260503174622 11 255 4.8 4.8 0.00 0.00 0.00 41 1019.9
20260503174120 10 254 11.3 12.9 0.00 0.00 0.00 45 1020.0
20260503173614 11 293 8.0 9.7 0.00 0.00 0.00 44 1020.0
20260503173111 11 238 1.6 1.6 0.00 0.00 0.00 43 1020.0
20260503172608 11 314 12.9 16.1 0.00 0.00 0.00 45 1020.0
20260503172106 10 231 6.4 11.3 0.00 0.00 0.00 44 1019.9
20260503171601 10 177 6.4 9.7 0.00 0.00 0.00 47 1020.3
20260503171059 10 235 4.8 4.8 0.00 0.00 0.00 49 1020.1
20260503170555 10 241 4.8 8.0 0.00 0.00 0.00 48 1020.3
20260503150948 7 236 8.0 11.3 0.00 0.00 0.00 55 1021.2
20260503150444 7 213 3.2 4.8 0.00 0.00 0.00 54 1021.0
20260503131337 5 255 6.4 9.7 0.00 0.00 0.00 73 1021.2
20260503130835 5 240 6.4 9.7 0.00 0.00 0.00 73 1021.2
20260503130332 5 228 6.4 8.0 0.00 0.00 0.00 74 1021.2
20260503110726 1 195 1.6 1.6 0.00 0.00 0.00 91 1020.0
20260503110223 0 206 0.0 0.0 0.00 0.00 0.00 91 1020.3
20260503100149 1 219 0.0 0.0 0.00 0.00 0.00 90 1019.4
20260503090108 1 216 3.2 3.2 0.00 0.00 0.00 92 1019.3
20260503081544 1 223 0.0 1.6 0.00 0.00 0.00 92 1019.1
20260503081042 1 229 0.0 0.0 0.00 0.00 0.00 91 1019.3
20260503080537 1 240 0.0 0.0 0.00 0.00 0.00 91 1019.3
20260503072512 1 241 1.6 1.6 0.00 0.00 0.00 90 1018.9
20260503072008 1 241 0.0 1.6 0.00 0.00 0.00 90 1018.7
20260503071505 1 241 1.6 1.6 0.00 0.00 0.00 90 1018.7
20260503071001 1 241 0.0 1.6 0.00 0.00 0.00 90 1018.6
20260503070458 2 241 0.0 0.0 0.00 0.00 0.00 89 1018.8
20260503054917 2 241 0.0 1.6 0.00 0.00 0.00 87 1018.5
20260503054413 2 263 3.2 3.2 0.00 0.00 0.00 86 1018.6
20260503053911 2 241 1.6 1.6 0.00 0.00 0.00 86 1018.6
20260503053409 2 242 3.2 3.2 0.00 0.00 0.00 86 1018.7
20260503052905 2 241 1.6 1.6 0.00 0.00 0.00 86 1018.6
20260503052403 2 241 1.6 1.6 0.00 0.00 0.00 86 1018.7
20260503051858 2 241 0.0 1.6 0.00 0.00 0.00 86 1018.6
20260503051355 2 241 1.6 3.2 0.00 0.00 0.00 86 1018.7
20260503050852 2 241 0.0 0.0 0.00 0.00 0.00 86 1018.8
20260503050348 2 241 1.6 1.6 0.00 0.00 0.00 86 1018.7
20260503045846 2 241 0.0 0.0 0.00 0.00 0.00 85 1018.9
20260503045343 2 241 1.6 1.6 0.00 0.00 0.00 85 1019.1
20260503044839 3 243 1.6 3.2 0.00 0.00 0.00 85 1018.9
20260503044336 3 241 0.0 1.6 0.00 0.00 0.00 85 1018.8
20260503043833 3 241 1.6 1.6 0.00 0.00 0.00 85 1018.9
20260503043331 3 241 1.6 3.2 0.00 0.00 0.00 85 1018.7
20260503042827 3 241 1.6 1.6 0.00 0.00 0.00 85 1019.0
20260503042324 3 241 1.6 1.6 0.00 0.00 0.00 85 1018.8
20260503041819 3 241 1.6 1.6 0.00 0.00 0.00 84 1019.0
20260503041317 3 241 1.6 1.6 0.00 0.00 0.00 84 1018.7
20260503040815 3 242 1.6 3.2 0.00 0.00 0.00 84 1018.9
20260503040312 3 241 1.6 1.6 0.00 0.00 0.00 83 1018.8
20260503035809 3 242 1.6 1.6 0.00 0.00 0.00 83 1018.8
20260503035306 3 241 1.6 1.6 0.00 0.00 0.00 83 1018.7
20260503034803 3 242 1.6 1.6 0.00 0.00 0.00 83 1018.8
20260503034300 3 241 1.6 3.2 0.00 0.00 0.00 83 1019.0
20260503033758 3 242 3.2 3.2 0.00 0.00 0.00 83 1018.8
20260503033255 3 258 1.6 3.2 0.00 0.00 0.00 83 1018.9
20260503032753 3 270 3.2 3.2 0.00 0.00 0.00 83 1018.9
20260503032252 3 241 0.0 0.0 0.00 0.00 0.00 83 1018.8
20260503031748 3 241 0.0 0.0 0.00 0.00 0.00 82 1019.0
20260503031246 3 241 0.0 1.6 0.00 0.00 0.00 82 1018.9
20260503030742 3 241 1.6 1.6 0.00 0.00 0.00 82 1018.7
20260503030239 3 241 0.0 0.0 0.00 0.00 0.00 82 1018.8
20260503025736 3 241 1.6 1.6 0.00 0.00 0.00 81 1018.9
20260503025233 3 258 1.6 3.2 0.00 0.00 0.00 81 1019.0
20260503024730 3 241 0.0 1.6 0.00 0.00 0.00 80 1018.8
20260503024227 3 242 1.6 1.6 0.00 0.00 0.00 80 1018.9
20260503023724 3 241 1.6 3.2 0.00 0.00 0.00 80 1018.8
20260503023221 3 271 3.2 3.2 0.00 0.00 0.00 80 1018.9
20260503022717 3 265 4.8 4.8 0.00 0.00 0.00 79 1019.0
20260503022216 3 329 4.8 4.8 0.00 0.00 0.00 78 1019.1
20260503021713 3 268 4.8 4.8 0.00 0.00 0.00 78 1019.0
20260503021209 3 311 3.2 4.8 0.00 0.00 0.00 77 1019.0
20260503020707 3 244 4.8 4.8 0.00 0.00 0.00 77 1019.0
20260503020204 3 308 4.8 4.8 0.00 0.00 0.00 77 1019.1
20260503015701 3 18 6.4 8.0 0.00 0.00 0.00 77 1019.0
20260503015158 3 1 8.0 9.7 0.00 0.00 0.00 76 1019.0
20260503014654 3 348 11.3 12.9 0.00 0.00 0.00 77 1018.8
20260503014152 3 304 4.8 4.8 0.00 0.00 0.00 77 1018.8
20260503013649 3 15 1.6 4.8 0.00 0.00 0.00 77 1018.8
20260503013147 3 297 3.2 3.2 0.00 0.00 0.00 80 1018.7
20260503012644 3 10 4.8 8.0 0.00 0.00 0.00 80 1019.0
20260503012140 3 307 4.8 4.8 0.00 0.00 0.00 80 1018.9
20260503011637 4 340 6.4 9.7 0.00 0.00 0.00 80 1018.9
20260503011134 4 256 1.6 3.2 0.00 0.00 0.00 79 1018.9
20260503010630 4 244 1.6 3.2 0.00 0.00 0.00 78 1018.7
20260503010128 4 272 4.8 8.0 0.00 0.00 0.00 78 1018.6
20260503005625 4 304 4.8 4.8 0.00 0.00 0.00 78 1018.5
20260503005122 4 245 1.6 1.6 0.00 0.00 0.00 77 1018.6
20260503004618 4 302 3.2 3.2 0.00 0.00 0.00 77 1018.7
20260503004117 4 281 6.4 8.0 0.00 0.00 0.00 77 1018.6
20260503003613 4 335 6.4 8.0 0.00 0.00 0.00 77 1018.1
20260503003110 4 339 8.0 11.3 0.00 0.00 0.00 77 1018.4
20260503002607 4 331 4.8 4.8 0.00 0.00 0.00 77 1018.4
20260503002104 4 65 3.2 4.8 0.00 0.00 0.00 77 1018.2
20260503001600 5 5 11.3 12.9 0.00 0.00 0.00 77 1018.0
20260503001057 5 2 8.0 11.3 0.00 0.00 0.00 77 1018.1
20260503000555 5 40 6.4 8.0 0.00 0.00 0.00 76 1018.1
20260503000052 5 326 4.8 4.8 0.00 0.00 0.00 75 1017.8
20260502235548 5 353 8.0 8.0 0.00 0.00 0.00 75 1017.9
20260502235046 5 12 4.8 4.8 0.00 0.00 0.00 75 1017.9
20260502234542 5 264 3.2 4.8 0.00 0.00 0.00 74 1017.9
20260502234040 5 46 9.7 12.9 0.00 0.00 0.00 73 1017.7
20260502233540 5 327 16.1 20.9 0.00 0.00 0.00 74 1017.8
20260502233037 5 6 9.7 11.3 0.00 0.00 0.00 73 1017.8
20260502232533 5 335 9.7 14.5 0.00 0.00 0.00 73 1017.5
20260502232031 6 358 6.4 8.0 0.00 0.00 0.00 74 1017.6
20260502231528 6 356 8.0 11.3 0.00 0.00 0.00 74 1017.5
20260502231025 6 341 6.4 8.0 0.00 0.00 0.00 72 1017.4
20260502230524 6 310 8.0 11.3 0.00 0.00 0.00 71 1017.3
20260502230022 6 282 11.3 16.1 0.00 0.00 0.00 69 1017.4
20260502225517 6 1 6.4 8.0 0.00 0.00 0.00 69 1017.1
20260502225014 6 350 12.9 17.7 0.00 0.00 0.00 70 1017.1
20260502224510 6 87 6.4 8.0 0.00 0.00 0.00 70 1017.1
20260502224008 6 60 6.4 9.7 0.00 0.00 0.00 70 1017.1
20260502223505 6 24 6.4 8.0 0.00 0.00 0.00 70 1017.1
20260502223003 6 70 3.2 8.0 0.00 0.00 0.00 70 1017.5
20260502222500 6 345 8.0 9.7 0.00 0.00 0.00 69 1017.0
20260502221956 6 332 8.0 8.0 0.00 0.00 0.00 69 1017.1
20260502221452 6 25 12.9 14.5 0.00 0.00 0.00 68 1017.1
20260502220949 7 16 6.4 9.7 0.00 0.00 0.00 65 1017.0
20260502220445 7 315 11.3 14.5 0.00 0.00 0.00 59 1016.7
20260502215942 7 353 8.0 11.3 0.00 0.00 0.00 56 1016.7
20260502215439 7 240 4.8 4.8 0.00 0.00 0.00 57 1016.8
20260502214936 7 260 4.8 4.8 0.00 0.00 0.00 56 1016.7
20260502214433 8 301 9.7 11.3 0.00 0.00 0.00 56 1016.6
20260502213930 7 281 9.7 11.3 0.00 0.00 0.00 57 1016.6
20260502213427 8 345 8.0 9.7 0.00 0.00 0.00 56 1016.6
20260502212926 8 358 8.0 12.9 0.00 0.00 0.00 56 1016.7
20260502212424 8 326 11.3 12.9 0.00 0.00 0.00 54 1016.5
20260502211921 8 324 8.0 9.7 0.00 0.00 0.00 55 1016.5
20260502211416 8 239 1.6 3.2 0.00 0.00 0.00 55 1016.1
20260502210914 8 340 8.0 11.3 0.00 0.00 0.00 57 1016.3
20260502210411 8 8 8.0 11.3 0.00 0.00 0.00 56 1016.5
20260502205908 8 251 6.4 8.0 0.00 0.00 0.00 54 1016.3
20260502205404 8 331 4.8 11.3 0.00 0.00 0.00 53 1016.4
20260502204901 8 12 14.5 16.1 0.00 0.00 0.00 52 1016.3
20260502204358 8 336 11.3 14.5 0.00 0.00 0.00 52 1016.4
20260502203856 8 11 8.0 12.9 0.00 0.00 0.00 53 1016.1
20260502203354 8 5 11.3 12.9 0.00 0.00 0.00 50 1016.5
20260502202849 8 317 6.4 8.0 0.00 0.00 0.00 51 1016.4
20260502202346 8 284 3.2 3.2 0.00 0.00 0.00 53 1016.4
20260502201844 8 341 8.0 11.3 0.00 0.00 0.00 54 1016.5
20260502201340 8 277 6.4 8.0 0.00 0.00 0.00 55 1016.6
20260502200836 8 345 4.8 8.0 0.00 0.00 0.00 55 1016.6
20260502200332 8 354 6.4 8.0 0.00 0.00 0.00 54 1016.4
20260502195831 8 280 4.8 8.0 0.00 0.00 0.00 53 1016.7
20260502195327 9 333 9.7 11.3 0.00 0.00 0.00 52 1016.5
20260502194824 8 275 6.4 9.7 0.00 0.00 0.00 53 1016.6
20260502194321 9 332 14.5 17.7 0.00 0.00 0.00 51 1016.8
20260502193816 8 3 6.4 8.0 0.00 0.00 0.00 53 1016.6
20260502193314 8 328 8.0 11.3 0.00 0.00 0.00 53 1016.9
20260502192814 8 347 8.0 9.7 0.00 0.00 0.00 52 1016.7
20260502192312 8 239 4.8 4.8 0.00 0.00 0.00 53 1016.8
20260502191809 8 328 9.7 12.9 0.00 0.00 0.00 53 1017.0
20260502191307 8 338 9.7 11.3 0.00 0.00 0.00 52 1016.9
20260502190804 8 327 6.4 9.7 0.00 0.00 0.00 54 1016.9
20260502190301 8 266 11.3 16.1 0.00 0.00 0.00 52 1017.1
20260502185756 8 288 8.0 11.3 0.00 0.00 0.00 51 1016.9
20260502185252 8 343 8.0 9.7 0.00 0.00 0.00 51 1017.1